Location: Red Bud (historical)
(37.7759°N, 88.4053°W)
Time: 19:36:57
(UTC+00:00)

Tiangong - Pass Details

Date: 25 June 2021
Orbit: 374 x 385 km, 41.5° (Epoch: 24 July)

Event Time Altitude Azimuth Distance (km) Brightness Sun altitude
Exits shadow 08:38:37 25° 299° (WNW) 815 2.6 -17.9°
Maximum altitude 08:40:01 41° 354° (N) 558 2.2 -17.8°
Drops below altitude 10° 08:43:01 10° 67° (ENE) 1,392 4.8 -17.4°
Sets 08:45:10 0° 75° (ENE) 2,247 5.9 -17.1°
